Location: City of Britt
(43.0975°N, 93.8032°W)
Time: 22:02:22
(UTC+00:00)

ARIANE 6 FM1 Upper Stage - Visible Passes

Search period start: 04 October 2024 00:00
Search period end: 14 October 2024 00:00
Orbit: 564 x 594 km, 62.0° (Epoch: 04 October)

Date Brightness Start Highest point End Pass type
(mag) Time Alt. Az. Time Alt. Az. Time Alt. Az.
11 Oct 5.5 02:17:23 10° N 02:17:43 11° N 02:17:43 11° N visible
12 Oct 5.4 02:21:16 10° N 02:21:51 12° N 02:21:51 12° N visible
13 Oct 5.4 02:25:16 10° NNW 02:26:00 14° N 02:26:00 14° N visible
